Calgary Springbank,

10:43 PM MST on November 22, 2017 (GMT -0700)
Calgary Springbank

Weather History for CYBW - February, 2012

Change the Weather History Date:

Friday, February 3, 2012

  Actual Average Record
Temperature  
Mean Temperature 32 °F -  
Max Temperature 48 °F 29 °F 57 °F (2005)
Min Temperature 15 °F 8 °F -7 °F (2015)
Degree Days  
Heating Degree Days 32    
Moisture  
Dew Point 17 °F    
Average Humidity 56    
Maximum Humidity 76    
Minimum Humidity 30    
Precipitation  
Precipitation 0.00 in - - ()
Sea Level Pressure  
Sea Level Pressure 30.44 in    
Wind  
Wind Speed 5 mph ()    
Max Wind Speed 10 mph    
Max Gust Speed -    
Visibility 16.1 miles    
Events      
Averages and records for this station are not official NWS values.
T = Trace of Precipitation, MM = Missing Value Source: Averaged Metar Reports

Daily Weather History Graph

Daily Weather History Graph

Search for Another Location

Airport or City:

Trip Planner

Search our weather history database for the weather conditions in past years. The results will help you decide how hot, cold, wet, or windy it might be!

Date:

Astronomy

Feb. 03, 2012 Rise Set
Actual Time 8:11 AM MST 5:31 PM MST
Civil Twilight 7:36 AM MST 6:06 PM MST
Nautical Twilight 6:56 AM MST 6:46 PM MST
Astronomical Twilight 6:18 AM MST 7:25 PM MST
Moon 1:20 PM MST (2/3) 5:06 AM MST (2/3)
Length of Visible Light 10h 30m
Length of Day
9h 19m
Waxing Gibbous, 82% of the Moon is Illuminated
Feb 3
Waxing Gibbous
Feb 7
Full
Feb 14
Last Quarter
Feb 21
New
Feb 29
First Quarter

Hourly Weather History & Observations

Time (MST) Temp. Windchill Dew Point Humidity Pressure Visibility Wind Dir Wind Speed Gust Speed Precip Events Conditions
6:00 AM 19.4 °F 12.8 °F 12.2 °F 74% 30.51 in 15.0 mi NW 4.6 mph - N/A   Partly Cloudy
7:00 AM 19.4 °F 10.4 °F 12.2 °F 74% 30.51 in 15.0 mi NW 6.9 mph - N/A   Partly Cloudy
8:00 AM 19.4 °F 12.8 °F 12.2 °F 74% 30.53 in 20.0 mi NW 4.6 mph - N/A   Mostly Cloudy
9:00 AM 21.2 °F 16.4 °F 14.0 °F 74% 30.54 in 30.0 mi NW 3.5 mph - N/A   Mostly Cloudy
10:00 AM 26.6 °F 20.0 °F 19.4 °F 74% 30.53 in 30.0 mi NW 5.8 mph - N/A   Scattered Clouds
11:00 AM 32 °F - 20 °F 50% 30.49 in 28 mi NNW 5.8 mph - -   Clear
11:00 AM 32.0 °F 26.4 °F 21.2 °F 64% 30.49 in 30.0 mi NNW 5.8 mph - N/A   Scattered Clouds
12:00 PM 37.4 °F 34.9 °F 21.2 °F 52% 30.48 in 30.0 mi North 3.5 mph - N/A   Scattered Clouds
1:00 PM 42.8 °F - 23.0 °F 46% 30.46 in 30.0 mi NNW 2.3 mph - N/A   Partly Cloudy
2:00 PM 48.2 °F - 17.6 °F 30% 30.40 in 30.0 mi South 5.8 mph - N/A   Partly Cloudy
3:00 PM 46.4 °F 41.9 °F 21.2 °F 37% 30.39 in 30.0 mi SSE 9.2 mph - N/A   Partly Cloudy
4:00 PM 44.6 °F 39.2 °F 21.2 °F 39% 30.38 in 30.0 mi SSE 10.4 mph - N/A   Partly Cloudy
5:00 PM 41 °F - 21 °F 32% 30.39 in 28 mi NNW 5.8 mph - -   Scattered Clouds
5:00 PM 41.0 °F 36.4 °F 21.2 °F 45% 30.39 in 30.0 mi SE 6.9 mph - N/A   Partly Cloudy
6:00 PM 35.6 °F 29.2 °F 15.8 °F 44% 30.39 in 20.0 mi SE 8.1 mph - N/A   Partly Cloudy
7:00 PM 32.0 °F 26.4 °F 17.6 °F 55% 30.39 in 15.0 mi SSE 5.8 mph - N/A   Clear
8:00 PM 32.0 °F 26.4 °F 15.8 °F 51% 30.40 in 15.0 mi SSE 5.8 mph - N/A   Clear
9:00 PM 26.6 °F 21.2 °F 15.8 °F 64% 30.39 in 15.0 mi South 4.6 mph - N/A   Clear
10:00 PM 23.0 °F - 14.0 °F 68% 30.38 in 15.0 mi WNW 2.3 mph - N/A   Clear
11:00 PM 15 °F - 11 °F 76% 30.31 in 15 mi NW 9.2 mph - -